Simultaneous Nadir Overpasses (SNOs) Predictions

Prediction of SNOs between AQUA and METOP-A Satellite Orbit:

Table of predicted SNOs for the next 14.0 days since TLE Epoch: 4/6/2018
Index Date (AQUA) Time (AQUA) Lat,Lon (AQUA) SZA (AQUA ) Date (METOP-A) Time (METOP-A) Lat,Lon (METOP-A) SZA (METOP-A ) Distance(km) Time Diff (sec)
1 04/08/2018 23:09:00 -73.84, 7.16 113.63 04/08/2018 23:07:51 -73.79, 5.17 113.58 62.06 69
2 04/08/2018 23:58:36 74.29, 173.76 66.85 04/08/2018 23:58:20 74.31, 173.76 66.87 1.80 16
3 04/09/2018 00:48:03 -74.35, -18.73 113.11 04/09/2018 00:49:01 -74.36, -18.79 113.10 2.07 58
4 04/11/2018 18:43:16 -73.90, 73.45 114.60 04/11/2018 18:42:07 -73.86, 71.73 114.57 53.36 69
5 04/11/2018 19:32:51 74.31,-119.84 65.82 04/11/2018 19:32:37 74.32,-119.81 65.84 1.81 14
6 04/11/2018 20:22:18 -74.36, 47.67 114.13 04/11/2018 20:23:18 -74.37, 47.66 114.13 1.25 60
7 04/14/2018 14:17:34 -74.03, 139.60 115.49 04/14/2018 14:16:23 -73.97, 138.40 115.50 37.24 71
8 04/14/2018 15:07:07 74.33, -53.45 64.82 04/14/2018 15:06:55 74.33, -53.37 64.82 2.33 12
9 04/14/2018 15:56:34 -74.38, 114.05 115.14 04/14/2018 15:57:36 -74.39, 114.10 115.14 1.52 62
10 04/17/2018 09:51:51 -74.11,-154.15 116.41 04/17/2018 09:50:39 -74.08,-154.92 116.40 23.74 72
11 04/17/2018 10:41:22 74.30, 13.04 63.78 04/17/2018 10:41:14 74.29, 12.93 63.78 3.62 8
12 04/17/2018 11:30:50 -74.41,-179.58 116.11 04/17/2018 11:31:54 -74.40,-179.46 116.14 3.83 64
13 04/20/2018 05:26:09 -74.25, -88.03 117.25 04/20/2018 05:24:55 -74.19, -88.25 117.28 8.92 74
14 04/20/2018 06:15:37 74.33, 79.40 62.84 04/20/2018 06:15:30 74.35, 79.48 62.85 2.83 7




NCC Satellite Simultaneous Nadir Overpasses (SNOs) Prediction Service
